loading
|
Showing default

ESSA 3 (TOS-A), 2435

Orbit data source: Space-Track

ESSA 3 (TOS-A), 2435 is a payload satellite owned by ESSA (US) in LEO that was launched on Sun, 02 Oct 1966 UTC via a THOR DELTA E launch vehicle from the Air Force Western Test Range (AFWTR). Payloads include a variety of satellites, spacecraft, and rockets equipped with specific instruments for various scientific and technological missions. These include communications satellites like Starlink; space stations such as the ISS; scientific satellites like the Hubble; Earth observation satellites from companies like Planet Labs, Umbra, and HawkEye 360; GPS; miniature CubeSats for education and research; and military/defense satellites.

Loading next visibility...
Next conjunction unknown
Loading greatness...
ESSA 3 (TOS-A) details
Identifier
2435, 1966-087A
Orbit
LEO
Last TLE update1 day ago
Origin
Flag of USESSA (US)
ManufacturerRCA/East Windsor
MissionNon-operational Civil Weather
Bus & MotorTIROS I, Unknown motor
Mass148 kg wet, 148 kg dry
Launch date (UTC)
1966-10-02 (58 years ago)
Launch vehicle
THOR DELTA E
Launch site
Air Force Western Test Range (AFWTR)
Object type
Payload
Rocket body
Debris
Shape & HBRCyl, 1.1 m
Radar Cross Section0.994 m², Medium (>0.1 m² and < 1m²)

Expand to show TLE details & history

TLE from 1 day ago
0 ESSA 3 (TOS-A)
1 02435U 66087A   24285.77557493 -.00000021  00000-0  12178-3 0  9995
2 02435 101.0730 214.0989 0063837 181.8403 234.4688 12.56867402661945
Epoch: 2024-10-11T18:36Z
Definitive object data (Epoch: 2024-10-11T18:36:49.673Z)
Latitude54.27575°
Longitude-101.65923°
Altitude1,473.864 km
Speed7.118 km/s
True Right ascension13h 13m 33s
True Declination54° 07' 39"
Sunlit
Object was in daylight at TLE epoch
Predictive object data (real-time)
Latitude-8.44045°
Longitude93.31961°
Altitude1,390.659 km
Speed7.187 km/s
Apparent Right ascension01h 37m 38s
Apparent Declination-22° 52' 01"
Sunlit
Object is in full shadow
Predictive observer data (real-time)
Local Sidereal Time12:41:05
Azimuth320.732° NNW
Elevation-69.171°
Doppler factor1
Orbital elements
Apogee1,483.267 km
Perigee1,383.534 km
Semi-major axis7,811.537 km
Eccentricity0.0063837
Inclination101.073°
RAAN214.0989°
Arg. of periapsis181.8403°
True anomaly233.87625°
Mean anomaly234.4688°
Eccentric anomaly234.17225°
Mean motion3.14368 °/min
BSTAR0.00012178
Period114.52 mins
No data available
No data available

ESSA 3 (TOS-A) Visibility forecast

Observer location: 39.9160978°, -105.1181434

Span
Click to sort rows by Start time (UTC) header in descending order
Start Az.
Max El. time (UTC)
Max El. Az.
Max El.
End time (UTC)
End Az.
16 mins2024-10-12 19:14:19.116Z164.712° S2024-10-12 19:22:19.116Z292.756° NW44.714°2024-10-12 19:30:19.116Z342.315° N
7 mins2024-10-12 21:12:19.116Z245.253° WSW2024-10-12 21:15:19.116Z268.251° W15.145°2024-10-12 21:19:19.116Z298.922° NW
12 mins2024-10-13 07:16:19.116Z40.458° NE2024-10-13 07:22:19.116Z100.774° ESE29.365°2024-10-13 07:28:19.116Z156.263° SSE
14 mins2024-10-13 09:08:19.116Z3.751° NNE2024-10-13 09:14:19.116Z306.181° NW37.465°2024-10-13 09:22:19.116Z223.121° SW